{"data":{"norad_id":68901,"intl_designator":"2026-097G","name":"STARLINK-37360","alt_names":[],"object_type":"PAYLOAD","status":"ACTIVE","operator":null,"country":"US","launch_date":"2026-04-30","launch_site_code":"AFWTR","launch_vehicle":null,"mission":null,"orbit_class":"UNKNOWN","rcs_meters":null,"size_class":null,"mass_kg":null,"dimensions":null,"purposes":["comms"],"wikipedia_slug":null,"has_3d_model":false,"image_url":null,"decayed_at":null,"tle_current":{"epoch":"2026-05-25T02:30:03.415680Z","epoch_age_seconds":59882,"freshness":"FRESH","line1":"1 68901U 26097G   26145.10420620  .00041160  00000+0  75360-3 0  9996","line2":"2 68901  97.2877 340.8726 0000521 102.7351 257.3959 15.49224072  3945","mean_motion":15.49224072,"eccentricity":5.21e-5,"inclination_deg":97.2877,"raan_deg":340.8726,"arg_perigee_deg":102.7351,"mean_anomaly_deg":257.3959,"bstar":0.0007536,"rev_number":394,"period_min":92.949756334538,"perigee_km":418.64055152648,"apogee_km":419.34881264776,"semimajor_km":6797.1316820871,"source":"CELESTRAK","updated_at":"2026-05-25T13:38:22.067308Z"}}}